Time,TemperatureF,DewpointF,PressureIn,WindDirection,WindDirectionDegrees,WindSpeedMPH,WindSpeedGustMPH,Humidity,HourlyPrecipIn,Conditions,Clouds,dailyrainin,SoftwareType,DateUTC
2013-03-22 00:07:00,28.4,-2.0,30.07,SW,228,20.0,30.0,27,0.00,,,0.00,weatherlink.com 1.10,2013-03-22 06:07:00,
2013-03-22 00:22:00,28.2,-3.0,30.07,SW,236,19.0,31.0,26,0.00,,,0.00,weatherlink.com 1.10,2013-03-22 06:22:00,
2013-03-22 00:37:00,27.9,-2.0,30.07,NW,304,10.0,21.0,27,0.00,,,0.00,weatherlink.com 1.10,2013-03-22 06:37:00,
2013-03-22 00:53:00,27.0,-2.0,30.07,East,97,5.0,9.0,28,0.00,,,0.00,weatherlink.com 1.10,2013-03-22 06:53:00,
2013-03-22 01:08:00,25.8,-3.0,30.07,ENE,75,4.0,4.0,28,0.00,,,0.00,weatherlink.com 1.10,2013-03-22 07:08:00,
2013-03-22 01:23:00,25.4,1.0,30.06,ESE,123,3.0,8.0,34,0.00,,,0.00,weatherlink.com 1.10,2013-03-22 07:23:00,
2013-03-22 01:38:00,24.7,0.0,30.07,NNE,21,2.0,6.0,34,0.00,,,0.00,weatherlink.com 1.10,2013-03-22 07:38:00,
2013-03-22 01:53:00,24.4,-5.0,30.06,NW,308,2.0,10.0,28,0.00,,,0.00,weatherlink.com 1.10,2013-03-22 07:53:00,
2013-03-22 02:08:00,26.7,-3.0,30.05,WSW,237,16.0,18.0,27,0.00,,,0.00,weatherlink.com 1.10,2013-03-22 08:08:00,
2013-03-22 02:23:00,26.3,-4.0,30.06,SW,234,5.0,11.0,27,0.00,,,0.00,weatherlink.com 1.10,2013-03-22 08:23:00,
2013-03-22 02:38:00,25.6,-2.0,30.06,SW,225,0.0,8.0,30,0.00,,,0.00,weatherlink.com 1.10,2013-03-22 08:38:00,
2013-03-22 02:53:00,23.0,1.0,30.05,East,93,6.0,8.0,38,0.00,,,0.00,weatherlink.com 1.10,2013-03-22 08:53:00,
2013-03-22 03:08:00,20.6,3.0,30.06,East,89,0.0,5.0,47,0.00,,,0.00,weatherlink.com 1.10,2013-03-22 09:08:00,
2013-03-22 03:23:00,20.0,3.0,30.07,East,89,0.0,5.0,47,0.00,,,0.00,weatherlink.com 1.10,2013-03-22 09:23:00,
2013-03-22 03:38:00,18.6,3.0,30.08,East,89,2.0,3.0,51,0.00,,,0.00,weatherlink.com 1.10,2013-03-22 09:38:00,
2013-03-22 03:53:00,18.6,5.0,30.07,East,89,5.0,5.0,55,0.00,,,0.00,weatherlink.com 1.10,2013-03-22 09:53:00,
2013-03-22 04:09:00,18.3,4.0,30.07,SW,216,4.0,6.0,54,0.00,,,0.00,weatherlink.com 1.10,2013-03-22 10:09:00,
2013-03-22 04:24:00,18.0,3.0,30.07,WSW,253,4.0,7.0,53,0.00,,,0.00,weatherlink.com 1.10,2013-03-22 10:24:00,
2013-03-22 04:39:00,17.5,3.0,30.06,SW,218,4.0,5.0,54,0.00,,,0.00,weatherlink.com 1.10,2013-03-22 10:39:00,
2013-03-22 04:54:00,17.8,4.0,30.06,ENE,75,3.0,5.0,54,0.00,,,0.00,weatherlink.com 1.10,2013-03-22 10:54:00,
2013-03-22 05:09:00,17.3,4.0,30.06,East,85,0.0,6.0,55,0.00,,,0.00,weatherlink.com 1.10,2013-03-22 11:09:00,
2013-03-22 05:24:00,16.4,5.0,30.07,East,85,0.0,3.0,60,0.00,,,0.00,weatherlink.com 1.10,2013-03-22 11:24:00,
2013-03-22 05:39:00,14.9,4.0,30.07,East,85,2.0,3.0,63,0.00,,,0.00,weatherlink.com 1.10,2013-03-22 11:39:00,
2013-03-22 05:54:00,14.9,5.0,30.08,SE,134,2.0,2.0,65,0.00,,,0.00,weatherlink.com 1.10,2013-03-22 11:54:00,
2013-03-22 06:09:00,14.6,5.0,30.08,SE,134,2.0,4.0,66,0.00,,,0.00,weatherlink.com 1.10,2013-03-22 12:09:00,
2013-03-22 06:24:00,14.0,5.0,30.09,SE,134,2.0,3.0,67,0.00,,,0.00,weatherlink.com 1.10,2013-03-22 12:24:00,
2013-03-22 06:39:00,14.1,5.0,30.09,SE,134,2.0,2.0,68,0.00,,,0.00,weatherlink.com 1.10,2013-03-22 12:39:00,
2013-03-22 06:54:00,13.8,5.0,30.10,SE,134,1.0,4.0,67,0.00,,,0.00,weatherlink.com 1.10,2013-03-22 12:54:00,
2013-03-22 07:09:00,13.8,4.0,30.10,SE,134,2.0,3.0,65,0.00,,,0.00,weatherlink.com 1.10,2013-03-22 13:09:00,
2013-03-22 07:24:00,14.9,5.0,30.10,WSW,251,0.0,2.0,64,0.00,,,0.00,weatherlink.com 1.10,2013-03-22 13:24:00,
2013-03-22 07:40:00,16.2,6.0,30.11,WSW,251,0.0,3.0,63,0.00,,,0.00,weatherlink.com 1.10,2013-03-22 13:40:00,
2013-03-22 07:55:00,17.0,5.0,30.11,WSW,251,1.0,2.0,59,0.00,,,0.00,weatherlink.com 1.10,2013-03-22 13:55:00,
2013-03-22 08:10:00,18.3,7.0,30.11,WSW,251,2.0,4.0,62,0.00,,,0.00,weatherlink.com 1.10,2013-03-22 14:10:00,
2013-03-22 08:25:00,19.1,8.0,30.12,WSW,251,1.0,3.0,62,0.00,,,0.00,weatherlink.com 1.10,2013-03-22 14:25:00,
2013-03-22 08:40:00,19.7,9.0,30.12,WSW,251,1.0,2.0,64,0.00,,,0.00,weatherlink.com 1.10,2013-03-22 14:40:00,
2013-03-22 08:55:00,21.4,11.0,30.12,WSW,251,0.0,3.0,63,0.00,,,0.00,weatherlink.com 1.10,2013-03-22 14:55:00,
2013-03-22 09:10:00,24.2,14.0,30.12,NNW,339,2.0,6.0,66,0.00,,,0.00,weatherlink.com 1.10,2013-03-22 15:10:00,
2013-03-22 09:25:00,23.5,14.0,30.12,NE,40,4.0,7.0,66,0.00,,,0.00,weatherlink.com 1.10,2013-03-22 15:25:00,
2013-03-22 09:40:00,23.2,14.0,30.12,ENE,61,5.0,8.0,68,0.00,,,0.00,weatherlink.com 1.10,2013-03-22 15:40:00,
2013-03-22 09:55:00,23.2,15.0,30.12,NNE,17,3.0,9.0,71,0.00,,,0.00,weatherlink.com 1.10,2013-03-22 15:55:00,
2013-03-22 10:10:00,23.2,15.0,30.13,NE,38,5.0,9.0,71,0.00,,,0.00,weatherlink.com 1.10,2013-03-22 16:10:00,
2013-03-22 10:25:00,24.7,15.0,30.13,East,99,0.0,8.0,67,0.00,,,0.00,weatherlink.com 1.10,2013-03-22 16:25:00,
2013-03-22 10:40:00,25.3,14.0,30.13,East,94,2.0,5.0,63,0.00,,,0.00,weatherlink.com 1.10,2013-03-22 16:40:00,
2013-03-22 10:55:00,25.0,12.0,30.13,ENE,70,3.0,8.0,59,0.00,,,0.00,weatherlink.com 1.10,2013-03-22 16:55:00,
2013-03-22 11:11:00,25.8,12.0,30.13,NE,52,5.0,10.0,56,0.00,,,0.00,weatherlink.com 1.10,2013-03-22 17:11:00,
2013-03-22 11:26:00,25.4,11.0,30.13,NE,35,1.0,9.0,55,0.00,,,0.00,weatherlink.com 1.10,2013-03-22 17:26:00,
2013-03-22 12:11:00,26.3,9.0,30.14,NE,53,5.0,11.0,48,0.00,,,0.00,weatherlink.com 1.10,2013-03-22 18:11:00,
2013-03-22 12:26:00,25.0,14.0,30.14,NE,39,8.0,17.0,64,0.00,,,0.00,weatherlink.com 1.10,2013-03-22 18:26:00,
2013-03-22 12:41:00,24.2,13.0,30.15,NNE,29,6.0,13.0,63,0.00,,,0.00,weatherlink.com 1.10,2013-03-22 18:41:00,
2013-03-22 12:56:00,25.0,12.0,30.15,ESE,102,5.0,12.0,59,0.00,,,0.00,weatherlink.com 1.10,2013-03-22 18:56:00,
2013-03-22 13:11:00,25.6,11.0,30.15,NE,52,3.0,10.0,54,0.00,,,0.00,weatherlink.com 1.10,2013-03-22 19:11:00,
2013-03-22 13:26:00,24.8,13.0,30.16,ENE,74,7.0,11.0,60,0.00,,,0.00,weatherlink.com 1.10,2013-03-22 19:26:00,
2013-03-22 13:41:00,22.9,16.0,30.16,ENE,64,8.0,13.0,74,0.00,,,0.00,weatherlink.com 1.10,2013-03-22 19:41:00,
2013-03-22 13:56:00,22.1,16.0,30.16,North,4,3.0,7.0,78,0.00,,,0.00,weatherlink.com 1.10,2013-03-22 19:56:00,
2013-03-22 14:12:00,22.4,17.0,30.16,North,4,0.0,2.0,79,0.00,,,0.00,weatherlink.com 1.10,2013-03-22 20:12:00,
2013-03-22 14:27:00,22.5,17.0,30.17,SW,233,3.0,6.0,78,0.00,,,0.00,weatherlink.com 1.10,2013-03-22 20:27:00,
2013-03-22 14:57:00,24.5,16.0,30.17,SW,229,5.0,7.0,69,0.00,,,0.00,weatherlink.com 1.10,2013-03-22 20:57:00,
2013-03-22 15:12:00,24.2,15.0,30.18,SW,228,0.0,6.0,69,0.00,,,0.00,weatherlink.com 1.10,2013-03-22 21:12:00,
2013-03-22 15:27:00,25.0,15.0,30.18,SW,218,4.0,6.0,66,0.00,,,0.00,weatherlink.com 1.10,2013-03-22 21:27:00,
2013-03-22 15:57:00,26.0,16.0,30.19,SE,138,4.0,9.0,66,0.00,,,0.00,weatherlink.com 1.10,2013-03-22 21:57:00,
2013-03-22 16:12:00,24.8,16.0,30.19,South,172,2.0,8.0,68,0.00,,,0.00,weatherlink.com 1.10,2013-03-22 22:12:00,
2013-03-22 16:27:00,24.8,16.0,30.20,ESE,107,2.0,9.0,69,0.00,,,0.00,weatherlink.com 1.10,2013-03-22 22:27:00,
2013-03-22 16:42:00,24.5,16.0,30.20,NNE,21,4.0,6.0,70,0.00,,,0.00,weatherlink.com 1.10,2013-03-22 22:42:00,
2013-03-22 17:12:00,22.4,18.0,30.22,East,81,6.0,12.0,84,0.01,,,0.01,weatherlink.com 1.10,2013-03-22 23:12:00,
2013-03-22 17:27:00,22.2,18.0,30.23,ENE,58,7.0,10.0,85,0.01,,,0.01,weatherlink.com 1.10,2013-03-22 23:27:00,
2013-03-22 17:42:00,21.9,18.0,30.24,East,80,7.0,13.0,85,0.01,,,0.01,weatherlink.com 1.10,2013-03-22 23:42:00,
2013-03-22 17:58:00,21.6,18.0,30.24,East,80,6.0,10.0,86,0.00,,,0.01,weatherlink.com 1.10,2013-03-22 23:58:00,
2013-03-22 18:13:00,21.4,18.0,30.25,East,83,6.0,8.0,86,0.00,,,0.01,weatherlink.com 1.10,2013-03-23 00:13:00,
2013-03-22 18:28:00,20.8,18.0,30.25,East,80,3.0,8.0,87,0.00,,,0.01,weatherlink.com 1.10,2013-03-23 00:28:00,
2013-03-22 18:43:00,20.3,17.0,30.25,SE,138,5.0,9.0,86,0.00,,,0.01,weatherlink.com 1.10,2013-03-23 00:43:00,
2013-03-22 18:58:00,20.0,17.0,30.26,SW,220,4.0,7.0,86,0.00,,,0.01,weatherlink.com 1.10,2013-03-23 00:58:00,
2013-03-22 19:13:00,20.2,16.0,30.26,WSW,237,5.0,9.0,85,0.00,,,0.01,weatherlink.com 1.10,2013-03-23 01:13:00,
2013-03-22 19:28:00,20.2,16.0,30.27,SW,231,8.0,12.0,84,0.00,,,0.01,weatherlink.com 1.10,2013-03-23 01:28:00,
2013-03-22 19:43:00,20.2,16.0,30.27,SW,231,10.0,12.0,82,0.00,,,0.01,weatherlink.com 1.10,2013-03-23 01:43:00,
2013-03-22 19:58:00,20.5,16.0,30.28,SW,220,7.0,8.0,81,0.00,,,0.01,weatherlink.com 1.10,2013-03-23 01:58:00,
2013-03-22 20:28:00,20.6,15.0,30.29,WSW,237,3.0,7.0,80,0.00,,,0.01,weatherlink.com 1.10,2013-03-23 02:28:00,
2013-03-22 20:43:00,20.6,15.0,30.30,SW,223,4.0,6.0,79,0.00,,,0.01,weatherlink.com 1.10,2013-03-23 02:43:00,
2013-03-22 20:58:00,20.6,15.0,30.31,SW,223,0.0,4.0,80,0.00,,,0.01,weatherlink.com 1.10,2013-03-23 02:58:00,
2013-03-22 21:13:00,20.5,15.0,30.32,SW,224,4.0,4.0,80,0.00,,,0.01,weatherlink.com 1.10,2013-03-23 03:13:00,
2013-03-22 21:29:00,20.5,15.0,30.33,SW,223,1.0,5.0,80,0.00,,,0.01,weatherlink.com 1.10,2013-03-23 03:29:00,
2013-03-22 21:44:00,20.5,15.0,30.34,SW,223,0.0,1.0,80,0.00,,,0.01,weatherlink.com 1.10,2013-03-23 03:44:00,
2013-03-22 21:59:00,20.3,15.0,30.34,SW,223,0.0,1.0,81,0.00,,,0.01,weatherlink.com 1.10,2013-03-23 03:59:00,
2013-03-22 22:14:00,20.2,16.0,30.36,ENE,57,2.0,6.0,84,0.00,,,0.01,weatherlink.com 1.10,2013-03-23 04:14:00,
2013-03-22 22:29:00,20.0,16.0,30.36,North,11,3.0,5.0,84,0.00,,,0.01,weatherlink.com 1.10,2013-03-23 04:29:00,
2013-03-22 22:44:00,19.9,16.0,30.37,NE,41,4.0,5.0,84,0.00,,,0.01,weatherlink.com 1.10,2013-03-23 04:44:00,
2013-03-22 22:59:00,19.9,16.0,30.38,North,4,3.0,6.0,85,0.00,,,0.01,weatherlink.com 1.10,2013-03-23 04:59:00,
2013-03-22 23:14:00,19.7,16.0,30.38,NNE,33,2.0,5.0,85,0.00,,,0.01,weatherlink.com 1.10,2013-03-23 05:14:00,
2013-03-22 23:29:00,19.5,16.0,30.38,NNE,33,2.0,3.0,85,0.00,,,0.01,weatherlink.com 1.10,2013-03-23 05:29:00,
2013-03-22 23:45:00,19.5,16.0,30.39,ENE,59,3.0,5.0,86,0.00,,,0.01,weatherlink.com 1.10,2013-03-23 05:45:00,
2013-03-22 23:59:00,19.5,16.0,30.39,NE,47,3.0,5.0,85,0.00,,,0.01,weatherlink.com 1.10,2013-03-23 05:59:00,